COSMOS 2251 DEB, 47053

Orbit data source: Space-Track

COSMOS 2251 DEB, 47053 is space debris in LEO originally from a launch on Wed, 16 Jun 1993 UTC launched from the Plesetsk Missile And Space Complex (PKMTR). The debris from Iridium 33, an American commercial communications satellite, has been tracked extensively since its accidental collision with the defunct Russian satellite Cosmos 2251 in 2009. This event, occurring at high speed in low Earth orbit (LEO), generated thousands of pieces of space debris, significantly increasing the risk of further collisions. The Iridium 33 debris cloud has impacted space traffic management and orbital debris mitigation strategies, making it a subject of ongoing study in space situational awareness.

Loading next visibility...
Identifier
47053, 1993-036BXH
Orbit
LEO
Country
Flag of CISCIS
Related business
Manufacturer
Unknown
Mission
Spacecraft
Bus & Motor
Unknown
Mass
Unknown
Launch date (UTC)
1993-06-16 (32 years ago)
Launch vehicle
Unknown
Launch site
Plesetsk Missile And Space Complex (PKMTR)
Object type
Payload
Rocket body
Debris
Shape & HBR
Unknown shape, 0.1 m
Radar Cross Section
Small (<0.1 m²)

Expand to show TLE details & history
Last TLE update: 1 week ago

TLE from 1 week ago
0 COSMOS 2251 DEB
1 47053U 93036BXH 25293.90518773  .00001645  00000-0  14078-2 0  9999
2 47053  74.0626 339.5519 0377189 165.1735  11.5930 13.59495828281705
Epoch: 2025-10-20T21:43Z
TLE epoch observation values (Epoch: 2025-10-20T21:43:28.219Z)
Latitude
2.13828°
Longitude
163.4759°
Altitude
766.197 km
Speed
7.608 km/s
True Right ascension
10h 35m 46s
True Declination
2° 07' 32"
Sunlit
Object was in daylight at epoch
Visualization orbit readout
Latitude
Unknown
Longitude
Unknown
Altitude
Unknown
Speed
Unknown
Apparent Right ascension
Unknown
Apparent Declination
Unknown
Sunlit
N/A
Visualization observer readout
Local Sidereal Time
14:20:30
Azimuth
Unknown
Elevation
Unknown
Doppler factor
Unknown
Orbital elements
Apogee altitude
1,314.851 km
Perigee altitude
755.603 km
Semi-major axis
7,413.364 km
Eccentricity
0.03772
Inclination
74.0626°
RAAN
339.5519°
Arg. of periapsis
165.1735°
True anomaly
12.50353°
Mean anomaly
11.593°
Eccentric anomaly
12.04395°
Mean motion
3.40032 °/min
Orbital period
105.87 mins
BSTAR
0.0014078
Loading maneuver chart data...
Computing Atmospheric mass density...

Documentation

Showing up to 5 results
|